Location: B?jaj?g
(11.7167°N, 92.6667°E)
Time: 14:02:21
(UTC+00:00)

Envisat - Visible Passes

Search period start: 23 September 2021 00:00
Search period end: 03 October 2021 00:00
Orbit: 764 x 766 km, 98.2° (Epoch: 22 September)

Date Brightness Start Highest point End Pass type
(mag) Time Alt. Az. Time Alt. Az. Time Alt. Az.
23 Sep 4.9 22:05:42 10° NE 22:10:07 30° E 22:14:32 10° SSE visible
24 Sep 6.2 21:32:25 10° E 21:33:16 10° E 21:34:07 10° ESE visible
24 Sep 3.3 23:07:21 10° N 23:12:09 45° WNW 23:16:59 10° SSW visible
25 Sep 3.5 22:30:24 10° NNE 22:35:25 64° ESE 22:40:26 10° S visible
26 Sep 5.4 21:54:42 10° NE 21:58:37 22° E 22:02:31 10° SSE visible
27 Sep 3.0 22:55:41 10° N 23:00:41 62° WNW 23:05:42 10° SSW visible
28 Sep 4.1 22:19:05 10° NNE 22:23:55 46° E 22:28:46 10° S visible
29 Sep 5.8 21:43:58 10° ENE 21:47:06 16° E 21:50:13 10° SE visible
30 Sep 2.9 22:44:08 10° N 22:49:13 85° W 22:54:17 10° SSW visible
01 Oct 4.7 22:07:52 10° NE 22:12:25 33° E 22:16:58 10° SSE visible
02 Oct 6.1 21:33:49 10° ENE 21:35:35 12° E 21:37:21 10° ESE visible
02 Oct 3.4 23:09:43 10° N 23:14:27 41° WNW 23:19:12 10° SW visible
